EW1675 Weather Reports


Display with metric or nautical units.
time (UTC)temp
F
wind
direction
speed
MPH
gust
MPH
rain 1hr
in
rain 24hr
in
rain mn
in
humidity
%
barometer
mb
20260507145002 55 336 1.0 4.0 0.00 0.07 0.06 60 1012.8
20260507144002 55 358 0.0 3.0 0.00 0.09 0.06 59 1012.9
20260507143024 54 360 0.0 2.0 0.00 0.10 0.06 60 1013.0
20260507142003 54 2 1.0 7.0 0.00 0.10 0.06 59 1013.0
20260507141003 54 345 1.0 3.0 0.00 0.10 0.06 60 1013.1
20260507140045 54 339 1.0 4.0 0.00 0.10 0.06 60 1013.1
20260507135045 54 357 1.0 4.0 0.00 0.11 0.06 63 1013.1
20260507134003 54 342 1.0 4.0 0.00 0.12 0.06 64 1013.4
20260507133004 55 350 1.0 4.0 0.00 0.15 0.06 65 1013.3
20260507132045 55 19 0.0 3.0 0.00 0.17 0.06 66 1013.4
20260507131003 55 5 1.0 3.0 0.00 0.20 0.06 67 1013.0
20260507130003 55 343 1.0 5.0 0.00 0.23 0.06 67 1013.1
20260507125107 55 331 0.0 3.0 0.00 0.24 0.06 68 1013.2
20260507124106 55 349 1.0 6.0 0.00 0.24 0.06 70 1013.1
20260507123024 55 14 0.0 2.0 0.00 0.25 0.06 70 1013.1
20260507122003 55 4 1.0 4.0 0.00 0.25 0.06 68 1013.0
20260507121003 55 359 1.0 5.0 0.00 0.25 0.06 66 1013.0
20260507120003 55 341 1.0 6.0 0.00 0.26 0.06 65 1013.1
20260507115003 55 5 1.0 6.0 0.00 0.27 0.06 66 1013.0
20260507114025 55 356 1.0 4.0 0.00 0.27 0.06 70 1012.8
20260507113003 55 11 0.0 4.0 0.00 0.27 0.06 69 1012.5
20260507112024 55 339 1.0 5.0 0.00 0.27 0.06 68 1012.3
20260507111044 55 338 1.0 5.0 0.00 0.27 0.06 69 1012.5
20260507110023 55 1 2.0 6.0 0.00 0.27 0.06 70 1012.3
20260507105001 55 351 1.0 5.0 0.00 0.27 0.06 71 1012.4
20260507104023 55 342 1.0 7.0 0.00 0.27 0.06 72 1012.2
20260507103001 55 342 1.0 4.0 0.00 0.27 0.06 74 1012.1
20260507102001 55 353 1.0 4.0 0.00 0.27 0.06 76 1012.0
20260507101043 55 341 1.0 3.0 0.00 0.27 0.06 78 1012.0
20260507100022 55 323 1.0 5.0 0.00 0.27 0.06 78 1011.9
20260507095023 55 305 1.0 3.0 0.00 0.27 0.06 79 1011.9
20260507094043 55 326 1.0 3.0 0.00 0.27 0.06 81 1011.8
20260507093001 55 0 0.0 0.0 0.00 0.27 0.06 82 1011.9
20260507092001 55 14 0.0 5.0 0.00 0.27 0.06 81 1011.8
20260507091022 55 8 1.0 5.0 0.00 0.27 0.06 81 1011.5
20260507090001 55 333 1.0 4.0 0.00 0.27 0.06 82 1011.4
20260507085001 55 294 0.0 3.0 0.00 0.27 0.06 83 1011.6
20260507084104 55 1 1.0 3.0 0.00 0.27 0.06 83 1011.6
20260507083001 55 18 0.0 3.0 0.00 0.27 0.06 83 1011.4
20260507082001 55 13 0.0 3.0 0.00 0.27 0.06 83 1011.6
20260507081002 55 321 0.0 2.0 0.00 0.27 0.06 83 1011.4
20260507080022 55 323 0.0 2.0 0.00 0.27 0.06 83 1011.2
20260507075001 55 5 1.0 5.0 0.00 0.27 0.06 83 1010.9
20260507074001 55 345 2.0 8.0 0.00 0.27 0.06 83 1011.1
20260507073001 55 360 1.0 6.0 0.00 0.27 0.06 83 1011.1
20260507072002 55 350 1.0 9.0 0.00 0.27 0.06 83 1010.8
20260507071022 55 352 1.0 5.0 0.00 0.27 0.06 83 1011.0
20260507070002 55 357 2.0 11.0 0.00 0.27 0.06 83 1010.9
20260507065002 55 353 2.0 7.0 0.00 0.27 0.06 84 1010.9
20260507064022 55 347 1.0 8.0 0.00 0.27 0.06 86 1011.0
20260507063001 55 347 1.0 7.0 0.00 0.27 0.06 86 1011.0
20260507062001 56 340 1.0 4.0 0.01 0.27 0.06 87 1011.0
20260507061001 56 346 2.0 9.0 0.01 0.27 0.06 88 1011.0
20260507060001 56 343 1.0 10.0 0.01 0.27 0.06 89 1010.9
20260507055002 57 355 2.0 7.0 0.01 0.27 0.06 90 1010.8
20260507054022 57 360 0.0 4.0 0.01 0.27 0.06 90 1010.8
20260507053001 58 3 1.0 5.0 0.01 0.27 0.06 89 1011.2
20260507052043 58 323 0.0 1.0 0.01 0.26 0.05 89 1011.0
20260507051043 58 323 0.0 1.0 0.05 0.26 0.05 88 1010.7
20260507050001 58 322 0.0 2.0 0.05 0.26 0.05 87 1010.6
20260507045022 58 318 0.0 3.0 0.05 0.26 0.05 86 1011.2
20260507044105 59 350 1.0 9.0 0.05 0.26 0.05 85 1010.7
20260507043001 60 355 2.0 8.0 0.05 0.26 0.05 83 1011.3
20260507041001 61 337 0.0 4.0 0.00 0.21 0.00 80 1011.2
20260507040002 61 338 1.0 4.0 0.00 0.21 0.00 79 1010.8
20260507035001 62 353 1.0 5.0 0.00 0.21 0.21 78 1010.5
20260507034023 62 1 2.0 8.0 0.00 0.21 0.21 79 1010.7
20260507033001 63 349 2.0 7.0 0.00 0.21 0.21 78 1010.8
20260507032002 64 2 2.0 6.0 0.00 0.21 0.21 77 1010.6
20260507031022 64 358 2.0 4.0 0.00 0.21 0.21 78 1010.5
20260507030002 64 332 1.0 5.0 0.00 0.21 0.21 79 1010.2
20260507025002 65 318 1.0 6.0 0.00 0.21 0.21 80 1009.8
20260507024024 65 331 2.0 8.0 0.00 0.21 0.21 79 1009.9
20260507023023 66 336 2.0 8.0 0.00 0.21 0.21 80 1010.0
20260507022023 66 345 1.0 5.0 0.00 0.21 0.21 82 1009.9
20260507021001 66 359 1.0 4.0 0.00 0.21 0.21 81 1009.4
20260507020002 66 9 1.0 4.0 0.00 0.21 0.21 81 1009.5
20260507015001 67 12 0.0 3.0 0.00 0.21 0.21 81 1009.7
20260507014002 67 347 1.0 4.0 0.00 0.21 0.21 82 1009.6
20260507013002 67 12 2.0 5.0 0.00 0.21 0.21 82 1009.4
20260507012044 67 330 2.0 5.0 0.00 0.21 0.21 84 1009.8
20260507011002 68 360 0.0 2.0 0.00 0.21 0.21 86 1010.0
20260507010023 68 1 1.0 3.0 0.00 0.21 0.21 85 1009.8
20260507005105 68 252 0.0 2.0 0.00 0.21 0.21 85 1009.7
20260507004023 68 0 0.0 0.0 0.00 0.21 0.21 84 1009.5
20260507003002 69 0 0.0 0.0 0.00 0.21 0.21 84 1009.4
20260507002002 69 0 0.0 0.0 0.00 0.21 0.21 83 1009.6
20260507001024 69 0 0.0 0.0 0.00 0.21 0.21 83 1009.3
20260507000003 69 0 0.0 0.0 0.00 0.21 0.21 82 1009.1
20260506235105 70 0 0.0 0.0 0.00 0.21 0.21 81 1009.1
20260506234002 70 0 0.0 0.0 0.00 0.21 0.21 81 1008.9
20260506233023 70 186 0.0 1.0 0.00 0.21 0.21 80 1008.7
20260506232002 70 186 0.0 2.0 0.00 0.21 0.21 80 1008.6
20260506231002 70 214 0.0 3.0 0.00 0.21 0.21 79 1008.5
20260506230024 70 238 0.0 2.0 0.00 0.21 0.21 79 1008.4
20260506225002 70 189 1.0 5.0 0.00 0.21 0.21 79 1008.5
20260506224002 70 177 1.0 6.0 0.00 0.21 0.21 79 1008.5
20260506223045 70 156 1.0 5.0 0.00 0.21 0.21 79 1008.3
20260506222023 70 169 1.0 8.0 0.00 0.21 0.21 79 1008.3
20260506221002 70 172 2.0 9.0 0.00 0.21 0.21 79 1008.3
20260506220023 70 162 2.0 6.0 0.00 0.21 0.21 79 1008.4
20260506215002 70 154 2.0 7.0 0.00 0.21 0.21 79 1008.4
20260506214045 71 154 2.0 9.0 0.00 0.21 0.21 78 1008.3
20260506213105 71 154 3.0 9.0 0.00 0.21 0.21 78 1008.4
20260506212002 71 166 2.0 7.0 0.00 0.21 0.21 79 1008.2
20260506211002 71 173 2.0 7.0 0.00 0.21 0.21 79 1008.3
20260506210002 71 171 3.0 11.0 0.00 0.21 0.21 79 1008.2
20260506205023 71 159 3.0 8.0 0.00 0.21 0.21 79 1008.1
20260506204044 70 165 3.0 11.0 0.00 0.21 0.21 79 1007.8
20260506203024 70 164 2.0 9.0 0.00 0.21 0.21 80 1007.7
20260506202105 70 158 3.0 9.0 0.00 0.21 0.21 79 1007.9
20260506201023 70 168 3.0 10.0 0.00 0.21 0.21 79 1007.8
20260506200002 70 175 2.0 7.0 0.00 0.21 0.21 79 1008.1
20260506195002 70 166 2.0 7.0 0.00 0.21 0.21 79 1008.1
20260506194002 70 167 2.0 7.0 0.00 0.21 0.21 80 1008.2
20260506193002 70 155 3.0 9.0 0.00 0.21 0.21 81 1008.2
20260506192002 69 156 3.0 10.0 0.00 0.21 0.21 81 1008.2
20260506191023 69 154 3.0 10.0 0.00 0.21 0.21 81 1008.4
20260506190044 68 178 2.0 11.0 0.00 0.21 0.21 82 1008.5
20260506185002 68 162 2.0 10.0 0.00 0.21 0.21 83 1008.8
20260506184002 67 170 2.0 9.0 0.00 0.21 0.21 82 1008.8
20260506183004 67 159 2.0 9.0 0.00 0.21 0.21 83 1008.9
20260506182045 67 165 3.0 11.0 0.00 0.21 0.21 83 1008.6
20260506181044 67 163 3.0 11.0 0.00 0.21 0.21 83 1008.9
20260506180024 67 158 3.0 10.0 0.00 0.21 0.21 83 1009.0
20260506175024 66 153 3.0 9.0 0.00 0.21 0.21 84 1008.9
20260506174004 66 168 3.0 9.0 0.00 0.21 0.21 84 1009.0
20260506173023 65 155 3.0 14.0 0.00 0.21 0.21 85 1009.2
20260506172023 65 165 3.0 11.0 0.00 0.21 0.21 85 1009.4
20260506171002 65 163 4.0 11.0 0.00 0.21 0.21 86 1009.2
20260506170023 65 162 3.0 10.0 0.00 0.21 0.21 86 1009.3
20260506165045 65 159 3.0 12.0 0.00 0.21 0.21 87 1009.4
20260506164023 64 156 3.0 11.0 0.00 0.21 0.21 88 1009.4
20260506163045 64 162 3.0 11.0 0.00 0.21 0.21 90 1009.6
20260506162002 64 175 2.0 10.0 0.00 0.21 0.21 92 1009.4
20260506161024 63 163 2.0 10.0 0.00 0.21 0.21 92 1009.4
20260506160003 63 164 3.0 9.0 0.01 0.21 0.21 92 1009.5
20260506155024 63 158 3.0 10.0 0.01 0.21 0.21 92 1009.5
20260506154003 63 161 3.0 10.0 0.03 0.21 0.21 93 1009.7
20260506153024 62 166 3.0 10.0 0.04 0.21 0.21 94 1009.6
20260506152045 62 165 2.0 11.0 0.04 0.21 0.21 94 1009.8
20260506151003 61 162 2.0 9.0 0.04 0.21 0.21 93 1009.5
20260506150025 61 149 2.0 7.0 0.03 0.20 0.20 93 1010.0